GFSSGP_250_spd_096.txt.gz
Wind_Speed
34 40 34 32 29 29 28 26 24 24 25 27 28 29 24 23 25 33 34 42 49 52 41 33 27 19 15 12 11 9 9 10 9 10 11 10 10 11 13 15 17 19 20 21 22 22 21 19 15
37 39 35 31 28 30 29 28 23 25 27 25 26 26 19 20 29 31 33 41 50 50 39 31 25 18 14 10 8 8 6 7 7 7 7 7 9 10 11 12 14 14 14 14 12 12 13 16 20
43 40 39 36 33 30 25 27 26 25 23 20 20 17 18 25 26 31 31 41 48 45 34 28 21 15 11 8 7 6 6 6 6 6 5 5 7 6 6 7 8 8 11 14 16 18 19 21 21
43 42 36 40 34 32 28 27 26 22 18 18 17 16 22 19 26 32 31 40 44 34 30 24 18 14 11 6 5 6 5 4 5 4 3 3 2 2 7 11 13 14 16 18 19 20 23 25 25
44 41 36 36 35 37 34 32 27 22 21 21 15 19 21 25 27 28 30 38 37 36 30 22 20 17 13 11 10 7 6 5 4 4 5 10 12 15 15 16 18 19 21 21 22 24 23 23 24
45 45 43 39 38 37 38 31 27 26 23 20 17 21 21 18 26 29 30 32 36 37 34 25 22 23 20 15 11 11 12 13 14 17 17 19 19 20 20 21 22 22 23 23 23 23 24 25 26
52 47 49 43 40 38 39 35 35 28 24 22 17 24 17 18 27 29 24 27 34 34 37 31 27 25 24 22 19 19 19 19 19 20 20 23 23 25 24 24 24 26 27 28 28 28 30 31 30
58 54 50 49 46 42 39 38 36 30 26 22 21 26 16 21 26 27 22 22 30 30 35 35 38 28 26 26 26 25 25 25 25 25 26 27 27 28 29 29 30 30 30 31 31 30 29 28 29
54 52 50 55 49 48 46 41 32 31 27 22 24 24 19 25 24 22 18 21 20 25 29 31 36 32 31 32 27 26 26 28 29 29 30 32 31 29 29 29 30 31 33 34 32 32 31 30 30
56 53 53 56 52 47 43 40 33 30 30 20 31 20 19 23 22 20 20 18 17 20 24 26 31 30 33 31 30 28 26 26 27 27 26 26 26 24 23 25 28 35 34 35 33 33 35 32 35
62 56 54 54 51 52 46 44 36 38 32 21 33 28 28 26 21 19 20 20 20 15 14 19 24 23 27 26 23 23 24 27 25 25 23 27 28 27 26 24 25 29 30 33 36 39 41 40 41
68 65 60 60 58 55 49 45 39 41 35 26 33 29 29 25 23 21 20 23 17 16 14 16 20 22 22 22 23 23 21 18 24 26 23 25 28 27 30 23 23 26 31 34 36 40 45 46 45
65 61 57 53 53 54 50 50 44 39 34 26 32 33 32 24 24 22 24 23 17 17 14 15 18 18 19 19 22 18 18 16 18 21 24 28 33 31 35 31 33 33 32 37 37 41 43 44 47
63 65 64 61 57 53 57 56 51 45 40 33 37 40 33 26 26 22 27 23 22 17 16 15 15 15 17 20 19 18 14 12 14 19 21 26 30 34 38 37 37 40 38 36 38 41 45 47 49
68 69 64 62 63 61 61 44 50 48 49 41 37 39 36 34 29 23 27 27 24 20 15 17 17 17 15 17 16 20 22 21 21 18 22 26 29 31 35 36 39 41 41 40 40 44 45 50 51
78 71 67 64 63 62 60 57 59 49 50 44 43 41 35 31 29 25 25 27 26 26 20 20 24 23 20 20 19 17 20 22 24 25 25 27 31 30 35 37 41 43 42 39 39 43 46 52 53
73 71 69 66 66 66 61 62 57 54 51 50 52 42 41 42 33 27 25 27 29 28 25 22 23 26 26 27 27 25 24 27 27 29 28 29 31 30 33 38 40 41 42 41 39 42 50 55 56
73 75 75 71 69 69 64 64 57 59 56 56 55 51 40 41 38 30 27 27 32 30 27 26 24 24 27 28 28 34 29 32 34 33 33 34 34 35 37 40 45 44 41 42 43 45 53 56 60
77 83 81 73 73 72 69 65 64 59 58 58 54 51 48 47 36 35 29 32 33 32 28 33 31 32 29 31 30 34 38 37 38 34 36 40 38 40 39 42 45 44 46 41 42 46 52 55 60
81 82 80 79 78 74 74 65 65 63 59 60 59 53 50 52 41 34 33 34 35 34 33 36 38 36 34 31 33 35 36 39 39 38 41 43 39 41 43 46 50 47 46 46 46 50 58 64 66
78 82 87 87 85 85 80 72 69 63 64 59 62 61 54 51 48 44 40 37 41 39 37 36 42 43 37 36 37 37 38 39 39 42 44 40 40 41 50 56 52 49 54 53 56 60 64 66 67
83 83 95 95 91 84 79 77 79 72 70 67 62 56 59 62 60 56 45 46 46 46 40 38 42 46 42 40 40 39 41 42 42 43 40 43 44 48 56 55 58 58 56 58 61 64 68 75 73
86 86 93 98 97 91 87 83 72 70 67 72 73 71 68 61 58 57 57 50 48 47 47 39 48 50 47 45 46 45 48 46 46 44 47 46 49 54 55 57 57 57 62 69 72 73 80 78 77
92 91 98 100 97 95 83 86 75 69 72 73 74 74 77 67 68 66 67 67 56 51 48 47 50 52 49 50 58 57 53 51 51 48 50 51 53 56 59 60 59 58 71 71 75 77 83 84 84
94 94 100 100 99 88 85 90 67 76 74 73 74 72 72 72 67 65 64 64 68 61 52 48 50 56 55 51 53 64 56 51 55 58 54 57 62 62 67 63 61 69 73 77 78 80 84 87 90
94 100 99 102 99 94 99 93 82 86 84 80 78 79 77 73 73 66 66 63 60 61 62 59 50 52 57 57 57 60 58 56 61 62 61 63 62 72 71 65 69 74 79 83 78 84 88 89 91
101 104 105 104 102 107 106 96 92 91 89 85 82 81 78 78 79 79 72 67 67 67 66 65 59 57 55 60 62 65 60 63 63 63 65 66 74 72 71 66 73 78 83 88 85 86 91 94 96
103 109 114 112 106 111 107 103 92 89 89 86 82 82 78 76 80 84 79 81 81 71 67 66 68 69 67 60 60 59 67 72 70 70 71 76 75 77 75 76 81 83 88 88 89 89 94 97 101
106 112 110 108 106 112 110 102 97 93 90 88 86 86 82 83 83 84 81 78 83 81 80 80 79 75 73 74 70 68 70 70 72 76 81 78 79 78 81 82 87 89 93 96 97 97 99 103 105
117 108 115 113 109 111 113 103 100 96 95 93 94 91 86 87 88 89 86 80 81 81 81 80 78 78 79 76 75 79 81 80 79 87 86 83 83 86 84 87 92 95 99 101 102 104 103 105 108

GFSSGP_250_spd_102.txt.gz
Wind_Speed
44 40 32 29 30 31 28 27 20 21 21 24 19 17 16 15 12 19 24 31 33 39 44 36 28 22 17 13 8 3 3 2 4 4 4 3 4 5 5 6 6 6 6 6 5 1 3 5 5
39 38 37 34 30 30 31 30 20 20 22 24 19 15 15 8 10 18 22 29 32 36 43 34 25 20 14 9 6 4 2 2 2 2 3 3 2 2 2 2 2 3 6 10 10 9 9 9 12
48 41 34 33 32 29 31 28 20 22 22 19 16 15 14 5 10 15 21 26 31 34 39 35 25 20 13 10 5 4 4 3 3 3 4 4 4 4 8 12 12 14 15 14 14 16 19 20 22
53 41 38 36 31 32 34 27 19 23 22 16 16 11 11 4 9 14 21 23 30 34 41 35 25 19 15 14 13 11 9 10 8 9 12 15 17 20 19 19 20 21 20 19 21 22 25 26 24
50 46 40 40 36 35 36 30 23 19 17 15 13 11 8 3 7 14 17 20 25 31 37 30 24 20 20 22 22 21 21 21 21 22 22 23 24 25 25 23 22 21 24 26 26 26 26 25 24
48 48 47 41 38 33 37 35 27 24 24 20 15 13 9 5 6 9 17 16 21 26 30 32 23 22 26 26 27 28 29 30 28 26 25 25 26 26 25 24 25 27 28 28 27 27 27 28 29
55 52 52 50 44 40 36 37 30 27 29 23 16 11 9 7 4 11 15 13 17 23 25 29 28 27 27 28 27 28 30 32 32 31 29 28 27 26 26 27 27 28 28 27 26 26 26 27 31
50 52 51 47 48 46 42 35 31 28 30 25 21 17 13 11 6 9 11 9 13 17 20 26 25 29 30 29 30 30 31 33 33 32 31 28 27 28 27 26 27 24 24 23 25 26 27 28 32
47 50 53 47 47 41 38 33 30 30 28 27 27 21 14 12 7 7 9 8 9 11 14 17 21 27 29 31 28 30 32 33 33 32 29 25 26 27 26 20 20 24 24 26 26 33 29 30 31
59 57 52 48 47 45 41 39 33 31 27 27 25 17 15 15 13 7 8 13 8 7 7 11 15 19 23 26 28 27 27 26 29 29 31 26 26 26 25 25 25 23 25 25 28 32 30 29 30
65 61 57 54 48 52 46 36 37 35 30 32 30 25 17 17 14 16 13 12 6 7 7 6 10 14 16 17 20 18 20 22 19 22 27 28 22 20 19 20 20 23 26 24 27 29 31 30 33
68 67 62 61 51 48 45 43 43 38 35 34 32 29 20 21 17 17 16 11 8 8 9 8 4 6 9 11 12 14 13 17 18 18 17 19 20 19 17 15 19 23 26 26 28 30 31 33 32
68 63 64 61 54 54 49 44 40 40 38 39 30 27 22 22 21 16 17 16 9 10 9 12 10 6 2 3 4 6 9 11 15 13 14 15 17 19 18 20 20 21 23 27 29 34 33 34 34
71 68 66 60 57 57 50 46 40 41 40 37 35 31 26 27 23 22 21 21 22 16 12 12 13 11 9 5 6 6 4 4 8 12 14 17 19 21 21 20 20 21 25 28 31 33 34 35 36
78 73 70 67 63 64 52 52 48 45 42 38 35 33 33 28 29 25 26 26 24 18 14 12 16 14 14 13 10 11 14 15 15 17 17 18 21 21 22 24 26 28 28 28 31 35 35 36 37
72 68 69 68 67 63 61 58 48 45 44 40 40 37 37 29 27 28 32 28 28 20 18 17 16 18 18 17 14 14 15 15 15 18 18 20 22 23 24 24 27 28 30 32 33 38 39 40 40
70 68 68 71 66 66 62 63 59 50 49 50 44 42 42 37 35 34 30 30 30 29 23 21 21 20 23 20 20 18 21 19 19 19 21 23 26 28 28 27 28 29 29 32 37 41 40 47 43
68 71 76 72 71 70 65 65 63 53 53 50 45 43 45 41 36 37 34 32 39 33 27 28 28 24 23 26 26 24 26 27 27 26 25 27 28 31 32 32 32 30 30 34 43 42 44 49 44
73 72 70 77 72 68 70 69 65 55 57 50 44 45 48 44 34 35 35 38 43 34 30 32 33 27 25 25 28 26 30 29 31 32 33 31 34 36 37 37 36 35 34 40 48 44 48 50 49
74 77 71 66 72 78 80 76 68 62 60 55 51 48 49 46 43 45 42 40 42 40 42 42 36 31 30 30 33 34 33 35 33 33 35 36 38 39 42 41 45 41 38 44 45 49 51 55 54
76 73 72 72 69 62 70 71 68 66 64 58 57 58 50 48 49 47 43 44 48 46 42 44 35 33 34 36 40 39 39 43 37 40 38 40 42 43 42 45 49 45 45 54 49 54 51 56 57
81 79 77 72 76 66 62 67 71 68 62 59 62 63 59 55 46 47 45 47 52 46 44 47 45 41 44 43 43 46 51 50 46 43 42 43 44 45 45 44 50 54 53 56 57 59 56 60 66
89 85 81 78 73 73 65 60 70 66 66 70 70 67 60 61 56 52 52 49 52 51 48 46 47 56 49 46 50 50 52 48 48 52 54 48 49 51 55 55 50 56 58 61 63 63 62 65 68
95 92 88 83 81 79 69 61 65 68 77 78 74 69 65 70 62 57 57 55 55 50 55 54 53 56 51 53 56 57 58 57 59 59 56 50 50 55 62 62 61 58 58 61 65 63 67 70 72
99 95 95 90 87 73 73 67 54 67 77 79 78 76 72 77 64 61 62 60 59 58 62 59 58 65 68 65 67 65 63 66 62 63 60 59 55 64 67 64 60 60 61 66 64 72 72 74 77
100 100 96 93 89 85 81 70 57 70 72 82 83 82 79 77 70 66 70 66 63 70 69 66 63 67 67 70 68 68 68 72 66 65 64 65 66 66 67 63 67 68 74 70 71 75 77 78 79
105 102 99 97 94 91 88 78 71 72 69 71 83 85 87 85 76 72 75 76 70 73 73 69 62 70 76 73 71 73 76 69 66 63 67 67 67 66 70 72 75 77 79 75 79 83 83 81 86
108 106 107 106 101 96 89 83 79 79 80 73 74 84 88 89 83 80 83 82 74 77 75 77 69 76 79 81 83 79 77 71 70 68 70 72 72 76 76 78 82 85 82 83 87 83 82 85 90
111 110 109 106 104 101 96 90 86 88 86 81 77 82 86 87 83 83 85 87 82 81 83 85 79 82 83 83 85 80 76 76 76 78 78 79 84 84 80 81 80 81 83 86 88 85 86 91 93
115 114 115 114 111 108 105 96 94 93 93 88 85 83 88 90 91 87 88 93 91 86 89 90 86 80 84 85 83 80 76 77 83 81 80 80 84 87 86 88 86 85 87 93 91 93 93 93 97

GFSSGP_250_spd_105.txt.gz
Wind_Speed
48 40 40 40 41 38 28 29 28 24 25 23 21 23 17 17 16 18 20 25 28 31 36 31 27 20 14 9 5 2 1 3 5 4 4 5 7 6 4 4 3 3 3 3 3 4 8 8 7
42 47 45 41 37 35 26 31 29 25 26 19 17 21 16 16 13 21 18 25 28 31 37 31 27 19 12 7 3 1 2 4 7 6 4 5 4 4 3 1 1 4 8 13 13 12 12 12 14
49 40 46 43 36 31 26 32 27 28 22 17 19 17 13 12 11 18 17 21 27 31 35 36 29 21 14 7 3 2 6 5 6 6 4 3 4 5 10 14 17 18 18 18 18 18 18 18 19
54 47 45 45 43 42 34 29 27 27 27 18 16 13 12 10 12 14 16 18 23 29 32 37 25 17 12 11 10 8 8 8 8 9 13 16 18 21 21 22 22 23 22 21 20 22 23 22 22
58 52 52 43 38 37 33 30 30 23 16 18 14 15 11 7 10 12 13 17 22 26 33 29 21 20 18 17 17 19 19 20 19 21 22 24 25 24 25 26 25 23 22 22 25 26 26 24 23
61 57 51 50 44 38 33 29 31 27 21 14 17 15 10 9 9 7 12 14 19 22 26 27 27 21 21 23 24 27 27 26 26 26 29 29 28 26 24 24 24 24 25 26 23 21 20 20 23
55 59 54 50 43 43 38 32 34 33 26 21 22 20 14 11 5 4 11 10 13 17 20 23 30 23 22 24 25 27 30 28 28 29 28 27 26 24 24 25 25 27 26 27 25 24 21 24 25
56 54 51 51 49 40 38 34 32 33 33 24 27 19 17 11 15 2 7 7 10 12 16 18 22 26 25 27 30 33 33 32 31 28 27 25 23 21 21 26 27 27 26 26 27 26 26 26 25
51 56 52 54 50 42 40 37 38 33 29 27 31 26 22 17 15 7 6 7 9 9 10 14 17 21 23 26 27 29 33 35 31 26 26 26 25 25 25 23 24 22 22 25 25 25 24 24 26
59 57 55 52 52 49 50 45 46 41 36 29 30 30 24 21 17 12 7 7 7 7 6 9 10 14 17 16 21 24 19 21 26 28 27 24 20 19 17 17 18 19 19 20 24 27 27 27 27
69 66 60 57 54 50 45 42 41 40 32 30 30 25 25 17 18 18 14 9 9 5 5 7 8 6 8 12 14 14 19 16 16 20 21 21 20 16 14 14 13 12 14 16 19 24 27 26 26
70 65 61 59 53 51 48 45 41 41 38 34 36 28 32 27 21 17 14 11 12 8 6 7 7 5 4 5 7 6 9 12 12 14 13 12 14 13 10 10 10 13 14 17 19 22 28 32 30
73 69 63 58 56 52 46 45 47 43 43 40 36 29 28 28 24 17 20 18 15 11 7 9 11 9 7 5 6 8 7 5 7 7 9 10 11 11 11 13 15 15 17 20 22 25 29 34 33
79 74 68 65 59 63 55 50 51 44 44 40 39 34 32 29 28 24 19 22 22 17 17 17 11 11 10 10 10 10 10 11 9 11 12 14 15 17 18 19 20 22 23 25 24 28 29 33 34
79 77 70 68 67 68 61 55 54 46 48 44 47 38 35 33 28 25 21 24 23 22 23 17 14 13 12 9 14 16 16 16 17 17 17 17 18 21 24 26 26 26 25 27 28 24 28 35 35
81 79 72 73 69 70 62 61 51 50 51 48 45 46 38 32 33 28 24 29 23 21 24 20 18 14 15 17 18 18 19 19 19 20 21 21 21 21 25 24 28 32 31 31 28 27 31 38 39
78 76 76 75 74 72 64 64 58 53 53 51 42 43 42 34 35 30 29 29 28 31 28 29 24 22 20 21 20 22 20 20 20 23 24 25 27 28 26 30 32 37 39 40 36 36 35 43 44
70 71 79 77 79 74 67 68 64 55 56 54 47 41 48 43 43 36 35 34 32 33 31 34 36 28 27 30 24 24 25 25 24 28 25 31 34 34 33 34 37 39 43 45 46 44 43 48 53
74 75 67 76 81 76 74 72 67 62 59 56 50 46 46 46 43 43 40 39 35 39 35 36 36 26 29 34 28 25 22 28 30 33 32 35 37 36 38 38 40 41 44 44 48 48 52 53 55
81 79 70 71 71 78 80 74 71 62 61 59 57 55 49 50 46 48 47 47 39 39 36 39 42 36 34 36 36 34 31 35 37 40 37 42 44 43 41 39 43 42 43 46 51 54 56 56 61
86 79 80 72 69 75 78 73 71 69 64 59 57 56 50 44 46 46 48 50 43 44 45 42 41 41 40 40 40 39 42 44 42 42 43 48 49 47 44 46 46 48 50 52 57 58 59 61 64
86 83 82 81 77 69 74 73 74 71 65 62 61 60 57 57 52 56 53 53 53 48 43 41 41 45 44 43 45 46 47 45 48 46 48 52 50 46 51 54 53 52 52 56 63 63 63 64 62
93 90 88 83 81 76 64 66 74 72 68 69 71 71 65 62 60 59 61 61 56 50 49 49 44 45 46 45 48 52 52 53 54 49 49 53 56 61 58 59 56 54 57 65 68 68 62 65 66
98 95 92 86 86 79 71 61 63 71 79 79 77 75 72 70 64 64 65 66 60 56 55 52 52 51 50 52 53 53 50 57 57 52 53 59 66 66 65 64 61 62 68 70 69 67 70 71 76
104 99 98 93 87 76 79 71 58 60 71 81 79 80 78 75 72 69 71 71 68 62 61 58 57 53 51 54 57 57 62 59 58 63 68 67 70 71 68 66 65 66 70 68 70 69 72 78 80
105 103 102 95 88 79 77 71 60 67 69 65 69 80 78 78 77 75 74 71 72 65 68 64 62 61 58 57 61 65 63 63 67 70 71 71 72 70 75 74 70 68 67 74 73 78 85 83 83
112 108 107 102 94 91 81 73 68 74 74 72 68 65 71 76 77 80 79 74 77 68 73 71 69 69 65 64 64 65 66 66 67 65 64 68 79 79 81 83 76 75 79 78 85 85 91 88 87
116 114 110 108 101 94 86 83 77 77 84 80 79 75 70 71 80 86 83 79 81 78 74 78 75 74 72 69 70 75 77 73 67 69 76 80 77 84 84 84 81 81 85 88 85 87 87 90 91
119 116 112 108 107 100 92 89 86 86 90 89 88 86 81 75 73 81 86 84 80 80 80 81 79 76 77 79 79 77 80 81 76 74 80 84 87 88 88 85 85 85 86 88 89 91 94 97 95
122 119 118 114 110 104 102 96 90 92 93 92 91 92 90 86 81 75 70 75 87 90 88 88 87 87 83 85 85 81 82 85 86 87 84 88 91 89 87 89 90 90 92 92 95 96 99 101 101

GFSSGP_250_spd_111.txt.gz
Wind_Speed
44 41 38 37 34 29 20 21 21 13 18 22 29 22 20 23 22 19 18 23 26 32 35 33 24 18 15 12 7 5 4 4 4 0 1 2 4 3 4 5 5 4 5 5 11 17 19 18 16
43 42 36 37 36 31 21 29 27 21 21 22 25 26 23 20 19 16 16 20 25 31 31 33 24 22 19 14 6 2 2 1 4 5 6 5 5 4 5 7 8 9 16 18 21 22 20 18 20
53 50 43 43 40 30 29 31 30 25 17 26 26 20 19 15 17 15 15 18 25 27 31 36 25 29 24 13 6 1 1 3 4 4 6 6 6 7 11 17 20 21 24 25 24 23 22 20 22
54 54 48 48 43 35 34 33 27 34 29 28 30 19 23 15 18 12 12 17 23 24 30 35 34 30 27 17 8 3 2 6 6 8 9 14 17 20 22 25 27 28 27 27 25 22 22 21 18
52 57 54 51 50 36 41 40 30 34 34 33 21 23 20 12 11 10 11 15 20 21 27 34 37 34 26 23 18 15 14 13 18 21 23 23 25 27 28 30 28 29 26 24 22 21 21 19 17
59 52 59 57 54 44 33 42 35 37 34 28 20 15 15 12 8 10 12 13 18 19 22 28 36 33 25 22 20 21 21 23 25 27 27 29 30 30 30 27 27 24 24 22 21 18 18 17 19
64 57 57 53 54 49 38 26 34 37 33 26 19 13 13 14 7 9 8 11 13 14 16 20 26 30 33 33 27 23 24 25 27 28 29 30 31 28 26 25 27 24 25 23 21 21 19 19 15
70 68 60 57 53 50 48 36 32 34 33 26 24 22 13 16 12 7 9 9 11 12 12 14 18 20 26 24 32 31 28 28 26 26 26 25 24 25 24 22 20 18 18 17 17 18 19 22 19
75 74 69 64 53 50 54 48 38 35 33 26 22 19 16 19 17 11 11 9 10 9 7 10 12 14 17 22 25 27 27 29 25 24 20 21 18 16 16 17 16 15 14 16 11 12 13 15 15
70 75 72 70 61 54 57 49 45 43 39 34 32 25 30 25 21 18 13 12 8 10 5 4 9 11 12 15 16 20 21 22 22 20 20 18 17 16 16 14 10 12 12 12 13 13 11 12 15
74 73 76 73 68 60 56 53 49 44 38 39 33 27 28 23 23 27 20 15 10 9 9 4 3 6 7 9 10 12 13 13 12 12 13 13 14 14 14 12 14 15 14 16 16 19 20 18 17
73 77 77 77 72 68 62 60 51 52 43 38 31 28 26 24 23 25 18 19 17 15 10 9 6 5 8 2 5 7 7 7 8 9 9 8 8 8 7 8 9 11 14 17 21 25 27 26 29
76 74 75 75 77 71 67 63 61 55 48 44 35 35 34 35 27 19 13 24 22 16 11 9 12 9 8 8 7 6 5 7 11 12 11 9 12 11 11 13 16 14 15 20 24 27 30 30 32
85 75 72 73 74 70 68 65 65 60 56 52 43 39 37 32 31 22 20 20 25 19 16 15 15 13 13 12 9 6 6 11 10 10 10 13 13 13 9 16 19 23 26 26 29 31 34 34 34
88 81 71 70 71 72 68 60 66 63 54 50 47 44 43 36 33 30 30 23 18 21 19 18 20 18 16 18 13 12 13 13 15 13 12 15 14 13 19 21 21 26 28 29 32 32 35 37 38
88 84 71 71 75 68 67 65 64 58 57 53 51 45 44 44 39 34 32 32 28 25 24 23 24 23 20 19 21 19 21 18 15 16 22 21 19 20 24 28 28 29 32 35 36 36 36 40 42
91 87 77 72 72 73 70 73 61 61 58 49 49 46 47 42 34 34 38 34 31 30 27 27 23 30 26 21 20 22 26 27 20 22 23 25 27 25 30 28 31 34 36 39 40 37 34 41 45
92 87 84 77 73 73 66 68 62 58 54 48 49 49 42 41 43 34 39 39 37 34 34 32 28 30 25 22 24 26 25 26 28 31 30 29 27 28 35 34 34 41 43 44 44 44 43 51 54
95 96 87 83 80 75 76 73 67 65 62 53 50 53 47 41 44 37 41 42 40 40 40 36 36 34 36 30 31 34 33 32 31 31 29 32 36 36 41 41 43 46 46 50 48 49 54 56 59
99 95 91 87 81 77 74 78 77 66 66 55 55 52 50 51 44 43 47 47 44 42 42 42 40 37 37 40 39 39 38 40 37 41 40 37 37 40 43 46 49 50 52 52 53 54 53 52 65
98 99 94 91 87 83 71 70 74 72 67 64 62 59 56 56 45 47 44 50 47 47 48 47 45 46 45 45 44 42 44 46 46 45 45 44 45 43 42 48 52 53 55 59 60 58 59 64 71
97 100 98 94 92 86 81 68 68 69 66 64 66 63 62 56 52 51 47 49 53 50 48 48 50 49 51 51 51 47 47 47 47 48 49 48 48 47 48 46 51 57 59 58 61 63 62 66 72
98 102 103 101 98 92 86 75 65 69 64 67 72 72 66 60 56 57 55 52 51 48 52 51 49 53 53 51 51 52 49 50 50 47 46 45 49 52 52 53 53 60 63 66 67 63 63 64 65
107 105 107 106 101 99 89 88 69 67 66 74 73 73 67 64 63 61 59 62 55 56 55 55 54 55 52 55 55 53 53 52 55 54 54 55 56 54 57 60 59 57 62 66 72 72 75 72 74
113 109 110 114 107 97 93 90 70 70 67 71 75 76 73 71 69 64 64 66 65 61 61 59 59 59 54 54 56 58 58 57 61 63 61 60 65 66 66 66 68 70 67 67 70 74 77 79 83
108 109 110 111 106 92 96 86 70 72 73 70 68 71 70 72 72 73 69 69 71 68 64 63 62 62 60 62 65 65 65 68 67 68 67 67 69 70 74 72 72 77 77 77 79 79 80 84 87
117 117 107 113 111 104 100 91 83 80 79 75 72 66 64 68 69 77 72 73 71 74 70 68 67 67 65 68 71 70 71 71 72 74 74 74 75 76 77 79 79 78 81 83 87 89 91 93 95
125 115 122 117 114 109 98 96 86 79 85 82 77 73 66 63 66 71 71 72 72 74 75 74 70 71 70 70 76 76 75 77 77 79 82 84 83 83 85 85 83 85 87 86 89 94 97 98 99
122 125 122 118 115 109 106 98 91 90 88 87 84 80 76 70 65 67 69 70 67 69 72 72 78 81 81 81 80 80 84 82 80 82 85 85 83 88 87 88 93 93 91 89 92 95 96 99 100
123 123 123 123 112 108 104 100 97 94 89 92 88 86 80 78 75 71 70 68 67 63 64 64 67 70 70 72 72 74 74 78 78 79 84 85 83 86 87 89 91 93 93 94 89 91 94 97 101

GFSSGP_250_spd_114.txt.gz
Wind_Speed
53 42 37 37 40 38 33 24 24 16 13 15 16 14 25 22 24 24 21 22 25 30 35 36 26 23 17 14 11 7 3 4 3 4 4 5 6 6 6 6 8 9 8 10 17 19 19 17 15
47 47 41 42 39 36 35 31 28 18 15 16 16 17 27 22 22 17 21 20 22 29 34 35 25 23 21 16 12 8 5 4 6 7 8 7 8 10 10 11 12 16 22 23 23 22 20 16 14
55 52 44 44 41 32 31 35 28 20 20 20 14 18 25 18 21 19 16 17 22 27 31 33 26 24 22 16 12 8 5 4 4 7 10 10 11 13 16 20 24 26 26 24 23 22 20 17 15
57 55 51 47 43 34 39 38 27 23 23 26 21 22 23 18 20 17 12 16 19 25 28 30 32 25 23 19 14 9 8 8 9 11 16 20 23 25 27 28 28 27 26 25 23 19 17 16 15
60 62 54 49 41 39 43 39 28 28 24 25 25 28 23 20 15 9 10 13 16 22 25 27 33 31 24 23 22 20 19 21 23 24 25 27 28 30 28 29 29 25 25 24 20 16 14 13 15
59 62 56 56 49 45 46 35 22 31 34 25 29 33 24 17 11 6 9 10 13 19 21 20 24 30 31 24 24 23 22 24 26 27 27 27 27 30 30 26 25 24 22 18 19 19 15 13 15
70 68 65 58 54 50 49 44 40 30 33 33 27 33 20 16 10 5 6 8 11 17 16 17 21 25 31 33 26 26 28 30 28 28 29 28 25 26 28 27 26 23 20 17 18 14 14 12 14
70 66 66 62 60 54 51 47 48 36 23 39 32 25 18 15 13 7 6 8 8 12 13 13 15 20 25 29 31 29 29 29 28 25 24 24 24 22 21 20 19 18 16 12 10 11 9 12 13
72 73 64 60 53 55 56 51 52 38 32 28 28 23 21 18 14 12 10 10 9 8 14 9 11 14 19 20 22 25 26 26 25 25 22 17 16 18 16 16 13 12 9 14 15 15 16 17 16
70 68 73 68 60 57 60 55 51 46 36 31 27 24 23 17 19 15 16 13 9 7 9 10 7 9 10 12 16 16 18 18 18 19 18 18 16 14 15 13 9 8 11 14 15 16 18 20 21
74 72 71 71 67 65 57 56 47 50 46 39 35 32 26 24 22 23 21 22 13 10 6 10 6 8 5 7 9 12 11 14 12 11 9 10 10 8 8 8 7 8 9 11 13 17 22 24 26
73 77 72 75 71 71 65 60 52 50 52 46 39 41 35 32 23 24 22 23 15 17 14 11 11 9 3 4 5 4 7 9 9 10 9 6 8 9 9 9 11 14 14 15 18 20 26 28 30
78 77 77 70 74 73 71 65 58 55 53 46 42 42 35 31 24 25 22 17 16 21 20 15 14 13 11 5 7 5 4 6 8 7 8 10 10 11 10 9 13 12 15 17 21 22 26 29 31
82 82 74 72 70 73 66 69 64 61 57 53 47 46 44 32 30 30 29 23 23 19 26 19 17 15 15 14 12 9 8 8 8 9 9 8 9 11 6 11 18 21 21 24 26 30 32 34 34
88 84 79 78 72 69 72 65 69 67 63 59 54 48 46 44 39 36 31 29 22 24 24 26 22 21 19 20 16 16 15 15 13 14 14 15 18 16 17 19 22 22 21 24 29 33 37 40 39
87 87 82 79 78 75 70 68 71 69 67 65 64 56 51 50 46 43 34 36 32 28 23 24 28 25 24 23 20 21 21 22 22 21 19 19 22 23 22 23 26 29 29 28 32 38 41 41 44
85 87 83 84 80 76 70 74 65 67 70 67 61 58 58 52 50 45 42 40 35 35 35 30 31 32 26 28 28 25 23 22 25 28 28 28 27 29 28 30 30 35 35 37 39 41 46 48 48
85 87 88 84 85 81 76 74 69 62 65 67 58 55 55 56 57 52 46 44 42 38 40 34 34 36 32 31 31 24 25 26 29 27 29 32 32 31 33 35 34 36 39 40 45 47 48 50 54
97 90 91 89 90 83 78 79 75 61 65 62 61 56 54 53 51 52 52 51 40 43 43 40 35 38 39 33 33 31 29 33 35 36 39 38 37 39 41 39 43 43 41 44 45 43 47 52 55
100 93 88 93 90 90 85 81 75 68 62 63 60 58 60 52 49 49 54 53 53 44 45 45 44 42 38 40 40 40 40 41 41 42 44 43 43 43 45 45 46 47 48 46 47 52 57 58 61
104 97 96 91 92 92 89 83 74 71 66 62 62 64 66 56 49 50 52 49 52 47 48 47 45 43 44 45 47 45 45 45 48 47 48 50 50 52 52 51 54 52 51 53 56 56 62 61 63
108 105 104 100 95 92 91 84 81 74 71 61 56 65 66 62 52 53 58 53 49 50 48 48 52 48 47 50 51 51 51 52 51 50 50 52 54 53 54 54 56 55 57 55 58 62 64 66 66
111 114 111 108 101 94 95 88 82 79 68 65 70 71 69 67 57 59 61 57 57 49 53 48 51 53 50 48 51 54 57 56 54 57 57 59 58 58 61 56 57 59 60 65 66 68 70 71 77
118 119 116 112 106 104 92 92 81 83 76 72 71 74 73 72 67 64 66 61 58 58 55 54 53 55 54 53 56 58 57 57 60 61 62 60 59 60 59 61 65 67 68 67 67 72 78 79 80
117 117 119 116 114 95 94 97 78 80 77 77 75 70 70 72 69 71 71 72 69 64 60 58 58 58 61 55 56 58 60 60 62 62 61 63 64 65 69 71 71 71 71 75 77 79 81 84 86
112 117 120 117 112 97 100 95 85 77 78 83 80 75 73 70 70 69 69 75 74 69 69 63 65 62 63 62 61 63 65 66 62 65 65 65 69 71 74 74 75 77 79 82 85 85 89 89 90
113 122 115 123 118 111 106 92 92 86 80 86 87 83 73 70 69 72 71 77 76 74 72 68 68 68 67 70 68 68 70 71 73 71 70 73 75 77 78 80 81 81 81 84 88 89 90 91 95
113 116 124 126 120 113 104 94 88 93 84 84 88 88 85 77 72 69 69 75 78 80 77 73 73 75 72 72 74 76 75 75 77 76 75 76 78 79 83 85 87 86 84 87 88 89 91 92 93
112 114 120 123 121 116 108 99 92 92 93 86 87 88 88 85 79 75 71 69 67 69 73 78 79 81 80 81 80 80 81 83 82 81 81 82 84 86 88 90 91 89 87 86 87 86 87 89 91
111 114 119 127 121 120 116 105 95 92 95 95 89 88 88 88 85 82 77 73 68 63 66 72 75 78 83 82 81 82 83 83 82 80 83 84 81 80 78 79 81 83 87 90 90 92 96 98 100

GFSSGP_250_spd_117.txt.gz
Wind_Speed
42 42 36 36 30 30 35 35 29 25 22 15 15 16 15 13 23 26 20 20 25 29 34 38 39 23 17 10 9 8 4 3 3 4 5 7 9 10 11 9 8 8 8 9 12 15 14 12 11
50 46 44 42 35 33 32 31 29 24 20 13 14 14 15 14 23 19 21 20 22 26 33 38 35 23 17 11 11 8 5 5 6 6 8 10 12 13 13 14 15 15 19 21 20 18 17 14 12
53 48 50 47 44 33 36 38 34 31 23 19 18 13 14 17 23 19 19 18 19 25 30 35 33 26 19 15 12 10 7 5 7 7 9 11 13 14 16 20 23 25 25 22 20 19 16 17 15
57 56 50 51 47 35 43 38 32 29 27 23 18 18 18 18 20 22 14 15 17 23 28 31 32 29 22 20 17 13 8 5 7 11 14 17 20 24 25 27 27 26 25 23 20 18 15 13 17
58 57 56 55 47 40 42 39 33 29 30 25 21 20 21 19 22 18 12 8 13 20 24 25 28 29 26 21 20 20 18 17 19 21 21 23 29 29 30 29 29 27 26 20 18 15 16 17 14
60 61 56 55 53 48 44 42 36 34 33 29 26 18 15 25 28 16 11 4 12 16 17 18 24 29 28 22 23 21 22 23 25 26 26 27 30 30 28 28 26 21 22 19 18 18 15 12 14
66 65 65 62 51 51 50 42 37 38 40 33 19 26 20 28 25 15 7 5 11 14 12 14 19 25 26 26 24 23 27 28 29 29 29 27 26 26 27 26 24 20 16 15 13 11 9 10 11
64 67 70 68 64 57 54 47 48 39 40 24 29 24 20 29 19 16 9 6 8 11 10 10 12 16 21 21 23 25 29 27 26 26 26 24 22 22 21 21 18 16 14 12 9 9 11 14 18
67 65 73 68 63 61 56 51 52 44 42 40 29 29 28 28 15 17 11 10 10 8 9 6 8 10 13 16 17 22 24 26 25 21 18 20 18 18 15 12 10 9 5 3 6 10 14 18 19
70 66 67 70 65 61 60 56 55 51 44 41 30 26 27 25 18 19 14 14 13 9 8 9 7 9 6 9 12 14 13 15 17 18 17 15 14 12 10 8 7 5 6 8 9 12 14 20 23
74 72 61 65 69 68 66 59 59 56 50 43 39 31 27 30 23 19 18 21 20 16 13 8 11 7 6 2 4 8 11 10 10 10 9 8 7 4 3 5 7 10 10 13 15 18 19 23 24
79 74 66 63 64 67 64 59 58 47 51 49 45 39 34 29 28 26 27 22 23 20 16 18 14 11 9 6 2 1 1 3 5 5 6 7 7 6 5 6 8 10 10 13 14 17 19 26 30
81 77 73 70 62 65 63 64 59 54 52 52 49 45 41 36 35 33 30 25 25 18 15 18 18 17 13 11 9 6 8 6 5 6 6 4 6 7 10 8 9 13 16 18 21 22 25 28 33
86 82 78 73 71 66 65 61 62 62 60 52 45 43 47 44 40 33 32 27 27 20 24 22 24 20 20 16 14 13 12 13 11 10 11 11 10 9 11 12 15 19 21 23 23 23 26 31 37
83 85 81 79 74 64 70 66 65 65 63 62 56 49 45 43 40 40 37 32 34 29 30 29 25 28 24 24 19 19 18 17 18 16 17 16 17 17 19 21 22 24 27 31 31 31 34 37 42
84 83 84 83 80 75 65 69 70 64 65 64 59 57 54 48 43 43 41 43 39 35 33 33 32 30 31 27 26 24 21 22 25 24 25 23 23 23 24 27 28 30 30 33 37 36 33 39 45
87 80 82 88 85 83 74 74 71 65 64 63 59 60 58 54 51 48 45 45 45 40 39 37 36 32 31 32 31 28 26 27 27 28 28 28 29 29 32 33 34 34 38 34 34 36 38 39 45
88 85 82 89 89 87 83 80 75 67 64 63 59 58 60 60 60 55 55 51 51 51 41 41 38 38 33 33 35 34 31 33 33 35 33 32 32 32 33 36 39 41 42 43 45 46 49 51 53
98 93 88 90 96 90 83 83 76 73 68 60 59 57 61 65 63 60 59 55 56 53 53 49 51 42 44 44 41 39 39 38 39 36 38 38 38 41 40 43 45 47 51 50 50 53 53 55 56
102 97 92 92 93 89 88 85 82 75 69 68 62 61 59 59 60 65 60 56 58 56 57 54 52 49 46 47 39 42 44 45 43 41 42 44 45 48 47 48 52 53 53 54 53 56 55 56 58
105 99 97 97 97 90 89 85 83 76 73 69 61 60 57 60 59 60 59 55 56 58 58 58 54 51 51 50 49 46 47 45 49 48 49 49 49 50 52 52 54 56 57 58 58 57 59 61 60
111 106 105 102 103 98 93 88 87 82 76 71 67 63 65 63 61 61 56 58 60 60 55 57 58 52 48 52 53 52 50 51 53 53 53 54 56 57 59 59 58 59 61 62 62 61 62 69 69
112 114 112 111 108 104 98 91 83 84 78 74 70 71 68 65 60 63 64 64 62 59 56 57 58 58 52 50 56 57 55 54 53 56 56 58 60 62 62 62 62 64 66 63 61 63 68 73 77
120 117 116 115 113 109 95 94 81 81 78 78 79 77 74 68 63 64 67 71 70 62 59 57 58 54 53 52 55 54 56 57 55 57 58 60 62 62 63 64 65 67 68 68 66 69 72 78 81
119 119 120 119 117 102 98 103 80 81 79 78 80 80 76 74 69 65 68 71 72 69 63 61 65 65 62 55 55 59 58 57 62 62 57 59 63 67 70 69 67 67 67 71 72 76 79 82 82
115 121 122 121 117 108 108 106 87 84 84 82 83 83 81 76 77 71 69 73 72 74 72 69 65 67 64 63 63 62 64 64 65 69 65 66 67 69 72 72 70 72 74 76 77 79 80 82 87
118 118 121 126 124 119 115 103 98 93 89 87 90 88 86 82 78 78 75 74 80 80 81 79 73 75 72 73 71 70 71 72 71 69 72 75 75 75 75 75 77 77 76 79 80 81 85 91 94
115 120 124 126 125 123 115 108 103 96 97 91 91 93 92 87 81 79 80 78 74 74 72 75 75 78 79 80 79 77 75 75 78 79 77 77 78 78 79 83 83 83 84 85 86 88 91 88 85
111 115 121 124 123 122 119 115 108 105 100 102 93 91 95 93 88 83 82 82 81 75 73 75 76 75 76 79 84 82 80 81 81 80 83 84 85 85 88 88 88 90 88 85 85 85 83 84 87
105 107 115 119 116 121 124 117 112 113 107 107 105 98 94 96 94 89 84 83 82 81 76 76 78 75 76 78 80 87 88 85 85 88 90 92 91 91 88 88 85 83 84 83 83 84 87 90 94

GFSSGP_250_spd_123.txt.gz
Wind_Speed
39 41 39 38 37 34 32 30 27 27 25 24 26 25 17 13 12 12 16 19 22 27 31 33 33 33 25 24 14 7 3 3 3 2 4 6 9 10 12 12 11 10 9 9 9 9 14 14 9
47 38 43 40 43 41 33 31 34 25 28 21 25 22 16 14 12 12 14 17 23 23 28 32 30 33 27 23 14 6 5 5 3 3 5 5 7 8 10 11 10 12 13 15 20 19 16 15 16
53 44 37 42 46 43 33 30 32 27 24 25 26 17 19 14 15 12 15 17 21 21 25 30 30 29 29 22 15 6 4 5 6 6 8 10 10 10 13 15 16 20 24 24 21 19 18 14 10
55 55 48 38 46 45 41 33 29 24 26 25 23 22 20 16 17 16 12 15 19 18 22 27 27 30 31 24 19 15 11 10 8 9 10 12 13 14 17 22 24 25 24 23 20 16 15 15 14
59 55 53 51 47 46 44 36 33 28 27 24 26 22 23 20 18 17 12 15 18 15 18 22 24 27 28 26 22 17 17 17 16 16 17 20 23 26 26 25 24 22 20 17 20 14 11 11 10
63 57 56 55 52 41 45 40 35 34 30 30 28 23 19 18 16 10 9 9 14 12 15 16 21 24 25 25 24 21 21 22 23 24 26 29 29 27 26 25 24 21 19 16 13 11 10 10 11
68 63 59 55 52 55 45 47 43 40 40 33 30 26 22 13 20 12 11 8 11 10 12 12 15 20 15 23 23 24 24 25 25 24 27 28 27 26 24 21 17 16 15 13 11 10 10 10 11
72 67 62 59 54 53 55 49 49 45 42 38 34 31 26 26 23 17 16 10 12 9 10 9 10 16 13 13 19 21 21 23 23 23 22 22 21 21 18 17 15 13 10 8 4 4 5 9 11
75 72 70 65 58 57 59 57 52 49 46 44 39 32 27 29 27 21 16 13 15 10 10 8 8 10 12 9 11 15 17 17 17 16 16 15 13 13 11 11 9 6 4 3 3 6 8 10 11
79 77 75 69 61 60 61 58 55 52 49 48 43 41 33 25 26 26 20 15 16 8 9 12 7 8 11 9 6 8 8 9 9 10 8 7 5 4 5 4 2 1 2 5 5 7 12 16 17
84 82 80 73 65 62 62 62 61 56 51 43 43 46 40 34 28 26 23 15 20 14 10 12 12 7 9 10 6 3 4 3 3 3 2 1 1 3 3 5 5 6 7 9 12 15 14 20 22
86 88 82 75 71 65 62 61 62 61 50 47 50 48 44 40 36 29 24 21 17 22 15 12 15 12 12 11 10 7 6 8 6 6 5 6 7 6 7 8 11 12 14 16 18 20 22 26 30
87 91 84 77 72 69 66 63 61 62 60 49 47 49 48 45 41 37 30 29 26 21 26 16 14 16 15 13 14 13 14 12 12 11 10 12 13 14 15 15 14 15 18 21 22 25 28 30 33
90 93 88 81 76 72 70 65 62 64 59 53 47 51 51 49 43 39 37 34 33 28 26 22 20 20 19 18 17 18 19 20 19 17 17 18 18 19 20 21 23 23 24 25 26 30 32 35 36
93 94 90 84 80 75 73 68 69 66 63 58 52 51 51 52 47 44 43 40 39 35 34 30 27 27 25 22 24 24 22 25 26 24 22 22 24 26 27 29 29 27 29 31 32 35 36 37 41
97 97 94 86 82 80 77 73 77 69 66 62 59 52 54 53 55 50 43 43 43 43 39 37 33 32 31 28 26 28 30 30 31 31 30 28 27 28 29 30 32 33 34 35 37 38 41 43 45
100 97 96 91 87 85 81 77 83 74 71 67 62 55 50 54 56 51 47 44 46 45 45 41 39 37 36 35 35 34 34 36 35 37 37 35 34 33 33 36 37 40 41 42 43 44 45 47 49
100 99 100 98 97 91 86 80 87 78 73 70 64 60 54 52 55 56 58 50 51 49 45 42 38 42 39 38 36 36 36 38 39 41 40 40 40 39 39 39 43 46 46 49 50 50 50 51 53
110 106 103 103 102 95 90 86 82 82 74 71 68 66 62 56 52 54 61 58 55 55 52 51 50 47 45 42 40 40 42 43 46 41 45 44 43 43 44 47 48 47 47 47 49 53 54 56 55
114 110 106 107 103 98 95 86 84 80 77 75 71 68 67 61 56 56 55 56 57 55 54 53 52 50 49 49 49 49 46 47 48 52 50 50 51 53 54 53 52 52 54 55 56 56 56 57 60
117 112 110 110 106 100 99 90 88 82 79 79 76 70 70 68 64 61 62 61 60 58 56 56 55 54 55 55 54 55 55 54 54 55 54 52 53 55 55 54 53 55 56 57 58 58 59 59 59
121 116 113 112 112 106 100 94 92 86 80 78 77 74 71 72 71 68 64 59 62 60 60 60 59 57 56 55 57 60 60 60 59 58 58 57 57 58 59 60 59 58 58 60 59 61 59 58 62
124 118 117 114 113 112 103 99 87 87 84 80 79 78 79 77 75 72 70 69 64 62 62 64 63 61 60 59 59 61 61 64 64 62 61 61 60 59 59 60 59 60 59 60 56 60 64 67 68
126 123 121 117 114 112 105 104 87 90 83 84 83 82 82 80 78 76 74 73 71 71 67 65 64 63 62 61 60 64 65 64 64 65 66 66 67 68 66 62 62 63 61 61 62 63 65 68 70
124 126 125 122 119 110 109 112 91 90 89 90 89 86 83 84 83 81 79 78 75 74 71 70 68 68 66 63 64 65 68 65 65 69 69 65 66 69 70 71 69 66 65 65 65 65 69 69 75
119 126 127 123 122 116 116 109 101 92 94 93 93 92 89 87 85 83 82 81 80 80 75 74 71 69 67 68 67 65 65 71 68 66 70 72 69 68 69 69 70 73 75 75 73 71 75 76 83
114 119 122 126 126 124 119 110 103 102 96 95 95 96 98 95 91 86 84 81 79 79 80 78 76 74 71 71 69 66 67 68 73 74 73 77 74 74 69 70 73 75 78 80 78 81 80 81 83
111 113 117 123 127 125 119 114 105 105 104 101 97 99 99 98 96 91 87 84 81 81 81 81 79 78 78 76 75 75 72 71 73 75 74 77 80 80 80 81 80 80 82 83 84 87 89 85 84
109 113 116 116 120 124 121 113 110 107 108 108 103 101 100 99 101 99 94 91 88 88 86 84 84 84 83 82 81 79 77 76 75 75 76 75 77 80 81 82 80 79 78 80 77 79 83 85 86
103 110 112 113 113 115 118 109 111 113 110 110 109 106 102 103 104 104 103 97 95 93 92 90 89 88 87 86 84 83 80 79 79 78 80 81 81 80 80 81 83 83 83 84 86 85 86 86 88